This demonstration page uses our WeatherBlox Daily Observations layout. Learn more.

Hourly Observations for November 28, 2015

Temp ( °F °C ) Dew Point ( °F °C ) Humidity (%) Winds ( mph kmh ) Pressure ( in mb ) Visibility ( mi km ) Precip ( " mm )
12:15 am 00:15 Cloudy 23 -4.8 16 -9.1 72 72 NNE 9 15 30.59 1036 10 16.0934 0 0
12:35 am 00:35 Cloudy 23 -4.8 15 -9.5 70 70 NNE 8 13 30.59 1036 10 16.0934 0 0
12:55 am 00:55 Cloudy 23 -4.8 16 -9.1 72 72 NNE 9 15 30.59 1036 10 16.0934 0 0
1:15 am 01:15 Cloudy 24 -4.7 15 -9.5 69 69 NNE 6 9 30.59 1036 10 16.0934 0 0
1:35 am 01:35 Cloudy 24 -4.7 15 -9.2 71 71 Calm 30.59 1036 10 16.0934 0 0
1:55 am 01:55 Cloudy 24 -4.7 16 -8.7 74 74 NNE 3 6 30.59 1036 10 16.0934 0 0
2:15 am 02:15 Cloudy 24 -4.7 15 -9.3 71 71 NNE 5 7 30.59 1036 10 16.0934 0 0
2:35 am 02:35 Cloudy 23 -4.8 16 -9 73 73 NNE 5 7 30.59 1036 10 16.0934 0 0
2:55 am 02:55 Cloudy 23 -4.8 16 -9.1 72 72 NNE 7 11 30.56 1035 10 16.0934 0 0
3:15 am 03:15 Cloudy 24 -4.7 17 -8.5 75 75 NNE 8 13 30.56 1035 10 16.0934 0 0
3:35 am 03:35 Cloudy 23 -4.8 16 -8.9 73 73 NNE 9 15 30.56 1035 10 16.0934 0 0
3:55 am 03:55 Cloudy 23 -4.8 16 -9.1 72 72 NNE 8 13 30.56 1035 10 16.0934 0 0
4:15 am 04:15 Cloudy 23 -4.8 17 -8.3 77 77 NNE 8 13 30.56 1035 10 16.0934 0 0
4:35 am 04:35 Cloudy 23 -4.8 16 -8.9 73 73 NNE 9 15 30.53 1034 10 16.0934 0 0
4:55 am 04:55 Cloudy 23 -4.8 16 -8.8 74 74 NNE 9 15 30.53 1034 10 16.0934 0 0
5:15 am 05:15 Cloudy 23 -4.8 16 -9 73 73 NNE 8 13 30.53 1034 10 16.0934 0 0
5:35 am 05:35 Cloudy 23 -4.8 15 -9.2 72 72 NNE 9 15 30.53 1034 10 16.0934 0 0
5:55 am 05:55 Cloudy 23 -4.8 16 -9 73 73 NNE 9 15 30.53 1034 10 16.0934 0 0
6:15 am 06:15 Cloudy 24 -4.7 17 -8.6 74 74 NNE 6 9 30.53 1034 10 16.0934 0 0
6:35 am 06:35 Cloudy 24 -4.7 17 -8.6 74 74 NNE 6 9 30.53 1034 10 16.0934 0 0
6:55 am 06:55 Cloudy 24 -4.7 16 -9 72 72 NNE 7 11 30.53 1034 10 16.0934 0 0
7:15 am 07:15 Cloudy 24 -4.6 17 -8.5 74 74 NNE 8 13 30.53 1034 10 16.0934 0 0
7:35 am 07:35 Cloudy 24 -4.6 17 -8.6 74 74 ENE 9 15 30.5 1033 10 16.0934 0 0
7:55 am 07:55 Cloudy 24 -4.5 16 -8.8 72 72 NE 8 13 30.5 1033 10 16.0934 0 0
8:15 am 08:15 Cloudy 24 -4.5 16 -9 71 71 NE 7 11 30.53 1034 10 16.0934 0 0
8:35 am 08:35 Cloudy 24 -4.5 16 -9.1 71 71 NE 7 11 30.53 1034 10 16.0934 0 0
8:55 am 08:55 Cloudy 24 -4.5 16 -8.9 72 72 NE 8 13 30.53 1034 10 16.0934 0 0
9:15 am 09:15 Cloudy 24 -4.4 15 -9.2 70 70 NE 8 13 30.53 1034 10 16.0934 0 0
9:35 am 09:35 Cloudy 24 -4.2 15 -9.2 68 68 NE 6 9 30.53 1034 10 16.0934 0 0
9:55 am 09:55 Cloudy 25 -4.1 15 -9.5 66 66 NE 6 9 30.53 1034 10 16.0934 0 0
10:15 am 10:15 Cloudy 25 -4 15 -9.3 67 67 NE 3 6 30.56 1035 10 16.0934 0 0
10:35 am 10:35 Cloudy 25 -3.7 15 -9.6 64 64 Calm 30.56 1035 10 16.0934 0 0
10:55 am 10:55 Cloudy 26 -3.5 16 -9 66 66 Calm 30.56 1035 10 16.0934 0 0
11:15 am 11:15 Cloudy 26 -3.5 15 -9.5 64 64 NE 3 6 30.56 1035 10 16.0934 0 0
11:35 am 11:35 Cloudy 26 -3.4 15 -9.2 65 65 ENE 7 11 30.5 1033 10 16.0934 0 0
11:55 am 11:55 Cloudy 26 -3.3 16 -8.9 66 66 Calm 30.5 1033 10 16.0934 0 0
12:15 pm 12:15 Cloudy 26 -3.2 15 -9.5 62 62 NE 5 7 30.5 1033 10 16.0934 0 0
12:35 pm 12:35 Cloudy 26 -3.2 16 -9.1 64 64 NNE 5 7 30.5 1033 10 16.0934 0 0
12:55 pm 12:55 Cloudy 27 -2.9 16 -9.1 63 63 NNE 7 11 30.48 1032 10 16.0934 0 0
1:15 pm 13:15 Cloudy 27 -2.8 15 -9.7 59 59 NNE 7 11 30.48 1032 10 16.0934 0 0
1:35 pm 13:35 Cloudy 27 -2.6 16 -8.7 63 63 NE 7 11 30.45 1031 10 16.0934 0 0
1:55 pm 13:55 Cloudy 27 -2.7 15 -9.4 60 60 NE 7 11 30.45 1031 10 16.0934 0 0
2:15 pm 14:15 Cloudy 27 -2.7 14 -9.9 58 58 NE 8 13 30.45 1031 10 16.0934 0 0
2:35 pm 14:35 Cloudy 27 -2.6 15 -9.5 59 59 ENE 6 9 30.45 1031 10 16.0934 0 0
2:55 pm 14:55 Cloudy 27 -2.6 15 -9.2 61 61 NNE 5 7 30.45 1031 10 16.0934 0 0
3:15 pm 15:15 Cloudy 27 -2.6 14 -9.8 58 58 NE 5 7 30.45 1031 10 16.0934 0 0
3:35 pm 15:35 Cloudy 27 -2.6 15 -9.6 59 59 NE 7 11 30.45 1031 10 16.0934 0 0
3:55 pm 15:55 Cloudy 28 -2.5 15 -9.3 60 60 NE 5 7 30.45 1031 10 16.0934 0 0
4:15 pm 16:15 Cloudy 27 -2.6 15 -9.3 60 60 NNE 5 7 30.45 1031 10 16.0934 0 0
4:35 pm 16:35 Cloudy 27 -2.6 15 -9.2 61 61 NE 6 9 30.42 1030 10 16.0934 0 0
4:55 pm 16:55 Cloudy 27 -2.6 17 -8.5 64 64 NE 5 7 30.45 1031 10 16.0934 0 0
5:15 pm 17:15 Cloudy 27 -2.6 16 -9 62 62 NNE 5 7 30.45 1031 10 16.0934 0 0
5:35 pm 17:35 Cloudy 27 -2.7 16 -9 62 62 NNE 5 7 30.45 1031 10 16.0934 0 0
5:55 pm 17:55 Cloudy 27 -2.6 17 -8.2 66 66 Calm 30.45 1031 10 16.0934 0 0
6:15 pm 18:15 Cloudy 27 -2.7 18 -7.9 68 68 N 5 7 30.45 1031 10 16.0934 0 0
6:35 pm 18:35 Cloudy 27 -2.7 17 -8.1 67 67 N 7 11 30.45 1031 10 16.0934 0 0
6:55 pm 18:55 Cloudy 27 -2.8 17 -8.1 67 67 NNE 6 9 30.45 1031 10 16.0934 0 0
7:15 pm 19:15 Cloudy 27 -2.8 18 -7.6 70 70 NNE 5 7 30.45 1031 10 16.0934 0 0
7:35 pm 19:35 Cloudy 27 -2.8 18 -7.7 69 69 NNE 6 9 30.45 1031 10 16.0934 0 0
7:55 pm 19:55 Cloudy 27 -3 17 -8.1 68 68 NNE 6 9 30.45 1031 10 16.0934 0 0
8:15 pm 20:15 Cloudy 27 -3 18 -8 69 69 NNE 6 9 30.45 1031 10 16.0934 0 0
8:35 pm 20:35 Cloudy 27 -3 18 -7.6 71 71 NE 5 7 30.45 1031 10 16.0934 0 0
8:55 pm 20:55 Cloudy 27 -3 18 -7.9 69 69 NE 5 7 30.45 1031 10 16.0934 0 0
9:15 pm 21:15 Cloudy 27 -3 18 -7.7 70 70 ENE 3 6 30.45 1031 10 16.0934 0 0
9:35 pm 21:35 Cloudy 27 -3 19 -7.1 74 74 Calm 30.45 1031 10 16.0934 0 0
9:55 pm 21:55 Cloudy 27 -3 18 -7.8 70 70 NE 3 6 30.45 1031 10 16.0934 0 0
10:15 pm 22:15 Cloudy 27 -3 18 -7.8 70 70 NNE 3 6 30.42 1030 10 16.0934 0 0
10:35 pm 22:35 Cloudy 27 -3 18 -7.6 71 71 Calm 30.42 1030 10 16.0934 0 0
10:55 pm 22:55 Cloudy 27 -2.8 19 -7.5 70 70 Calm 30.45 1031 10 16.0934 0 0
11:15 pm 23:15 Cloudy 27 -2.8 19 -7.5 70 70 Calm 30.45 1031 10 16.0934 0 0
11:35 pm 23:35 Cloudy 27 -2.8 19 -7.4 71 71 Calm 30.45 1031 10 16.0934 0 0
11:55 pm 23:55 Cloudy 27 -2.8 19 -7.5 70 70 Calm 30.45 1031 10 16.0934 0 0

Powered by AerisWeather